Location: Rounton
(54.4000°N, 1.3500°W)
Time: 09:03:42
(UTC+00:00)

Tiros 1 despin weight - Pass Details

Date: 09 December 2021
Orbit: 592 x 641 km, 48.2° (Epoch: 19 January)

Event Time Altitude Azimuth Distance (km) Brightness Sun altitude
Rises 14:59:44 0° 266° (W) 2,835 ? 3.4°
Reaches altitude 10° 15:02:12 10° 256° (WSW) 1,928 ? 3.2°
Maximum altitude 15:06:07 32° 194° (SSW) 1,032 ? 2.8°
Drops below altitude 10° 15:10:01 10° 131° (SE) 1,920 ? 2.4°
Sets 15:12:28 0° 121° (ESE) 2,821 ? 2.2°
